Regional Weather Roundup
Issued by NWS

Home | Current Version | Previous Version | Graphics & Text | Print | Product List | Glossary On
Versions: 1 2 3 4 5 6 7 8 9 10 11 12 13 14 15 16 17 18 19 20 21 22 23 24 25 26 27 28 29 30 31 32 33 34 35 36 37 38 39 40 41 42 43 44 45 46 47 48 49 50
000
ASUS43 KDMX 200507
RWRIA

WEATHER ROUNDUP FOR IOWA
NATIONAL WEATHER SERVICE DES MOINES IA
1200 AM CDT WED AUG 20 2014

NOTE: "FAIR" INDICATES FEW OR NO CLOUDS BELOW 12,000 FEET WITH NO
SIGNIFICANT WEATHER AND/OR OBSTRUCTIONS TO VISIBILITY.

* - THESE STATIONS ARE NOT NWS STATIONS...THUS NOT UNDER NWS
QUALITY CONTROL.  THEY ALSO DO NOT REPORT WEATHER SUCH
AS PRECIPITATION OR FOG.

IAZ001>003-012>014-020>022-031>034-043>046-200600-
   NORTHWEST IOWA

CITY           SKY/WX    TMP DP  RH WIND       PRES   REMARKS
CARROLL *      PTCLDY    64  63  94 CALM      29.83S
CHEROKEE *     CLEAR     64  64 100 CALM      29.83S
DENISON *      CLEAR     66  66 100 CALM      29.81S
LE MARS *      CLEAR     66  64  94 CALM      29.81F
ORANGE CITY *  CLEAR     72  64  78 E3        29.83F
SHELDON *      CLEAR     64  63  94 E5        29.82S
SIOUX CITY     PTCLDY    71  66  84 E5        29.80S
SPENCER        PTCLDY    66  63  90 CALM      29.83F
STORM LAKE *   CLEAR     64  64 100 CALM      29.84F
$$

IAZ055>058-069>071-079>083-090>094-200600-
   SOUTHWEST IOWA

CITY           SKY/WX    TMP DP  RH WIND       PRES   REMARKS
ATLANTIC *     CLEAR     68  66  94 CALM      29.82R
AUDUBON *      CLEAR     66  64  94 CALM      29.84S
CLARINDA *     CLEAR     72  70  94 CALM      29.83R
COUNCIL BLFS * CLEAR     73  68  83 E6        29.80S
CRESTON *      CLEAR     68  66  94 SE5       29.84S
HARLAN  *      CLEAR     68  66  94 CALM      29.86R
LAMONI         CLEAR     74  67  78 E5        29.84R
RED OAK *      PTCLDY    73  68  83 CALM      29.81S
SHENANDOAH *   CLEAR     73  70  88 E5        29.81R
$$

IAZ047>049-059>061-072>074-084-200600-
   CENTRAL IOWA

CITY           SKY/WX    TMP DP  RH WIND       PRES   REMARKS
AMES           CLEAR     64  63  96 SW3       29.83R
ANKENY *       CLEAR     66  66 100 CALM      29.83R
CHARITON *     CLEAR     70  68  94 S5        29.84R
DES MOINES     PTCLDY    75  66  73 CALM      29.82S
GRINNELL*      CLEAR     68  63  83 SW3       29.85R
KNOXVILLE *    PTCLDY    72  66  83 CALM      29.82S
MARSHALLTOWN   CLEAR     68  64  87 CALM      29.83R
PELLA *        CLEAR     68  66  93 CALM      29.84S
PERRY *          N/A     64  64 100 CALM      29.83S
$$

IAZ004>006-015-016-023>025-035-036-200600-
   NORTH CENTRAL IOWA

CITY           SKY/WX    TMP DP  RH WIND       PRES   REMARKS
ALGONA *       CLEAR     68  64  88 SW5       29.84R
CLARION *      CLEAR     64  64 100 SW3       29.84R
ESTHERVILLE    PTCLDY    65  63  93 CALM      29.83S
FORT DODGE *   CLEAR     64  63  94 CALM      29.84S
MASON CITY     CLEAR     66  64  93 W6        29.84R
FOREST CITY *  CLEAR     64  64 100 CALM      29.83S
IOWA FALLS *     N/A     64  63  94 CALM      29.85R
$$

IAZ007>011-017>019-026>030-037>042-050>054-066-200600-
   NORTHEAST IOWA

CITY           SKY/WX    TMP DP  RH WIND       PRES   REMARKS
CEDAR RAPIDS   CLEAR     65  64  97 CALM      29.82R
CHARLES CITY * PTCLDY    66  64  94 CALM      29.82S
CLINTON *      CLEAR     64  61  88 W5        29.84R
DECORAH *      PTCLDY    68  64  88 CALM      29.81R
DUBUQUE        CLEAR     65  62  90 SW3       29.82S
MONTICELLO *   CLEAR     63  61  94 CALM      29.82R
OELWEIN *      CLEAR     64  64 100 CALM      29.83R
WATERLOO       PTCLDY    70  64  81 SW6       29.81R
$$

IAZ064-065-067-068-078-200600-
   EAST CENTRAL IOWA

CITY           SKY/WX    TMP DP  RH WIND       PRES   REMARKS
DAVENPORT      CLEAR     65  62  90 W3        29.83R
IOWA CITY      CLEAR     68  65  90 CALM      29.83S
MT. PLEASANT * CLEAR     64  63  94 CALM      29.84R
MUSCATINE *    CLEAR     68  64  88 S3        29.83R
QUAD CITIES    CLEAR     67  63  87 CALM      29.82R
$$

IAZ062-063-075>077-085>089-095>099-200600-
   SOUTHEAST IOWA

CITY           SKY/WX    TMP DP  RH WIND       PRES   REMARKS
BURLINGTON     CLEAR     66  64  93 SW5       29.84R
FAIRFIELD *    CLEAR     66  64  94 CALM      29.84R
FORT MADISON * CLEAR     72  68  88 CALM      29.85R
KEOKUK *       MOCLDY    72  70  94 CALM      29.84R
OSKALOOSA *      N/A     64  64 100 CALM      29.84R
CENTERVILLE *  CLEAR     66  66 100 S5        29.86R
OTTUMWA        CLEAR     65  63  93 CALM      29.83R
WASHINGTON *   CLEAR     66  66 100 CALM      29.84R
$$

ABBREVIATIONS USED IN REMARKS
   TC - TEMPERATURES IN CELSIUS
  WCI - WIND CHILL INDEX
   HX - HEAT INDEX
  VSB - VISIBILITY
$$




USA.gov is the U.S. government's official web portal to all federal, state and local government web resources and services.